Location: Fiddletown
(38.4917°N, 120.6633°W)
Time: 02:16:37
(UTC-07:00)

Envisat - Visible Passes

Search period start: 19 August 2017 00:00
Search period end: 29 August 2017 00:00
Orbit: 764 x 766 km, 98.2° (Epoch: 18 August)

Date Brightness Start Highest point End Pass type
(mag) Time Alt. Az. Time Alt. Az. Time Alt. Az.
19 Aug 3.8 20:10:28 10° SE 20:14:57 33° ENE 20:19:26 10° N visible
19 Aug 4.9 21:49:41 10° SSW 21:53:56 27° W 21:58:13 10° NW visible
20 Aug 3.4 21:12:04 10° S 21:17:04 62° WSW 21:22:07 10° NNW visible
21 Aug 3.1 20:35:27 10° SSE 20:40:25 58° ENE 20:45:24 10° N visible
21 Aug 5.6 22:16:55 10° SW 22:19:46 15° W 22:22:38 10° WNW visible
22 Aug 4.5 21:38:12 10° SSW 21:42:46 34° W 21:47:24 10° NNW visible
23 Aug 3.1 21:00:55 10° S 21:05:59 80° WSW 21:11:05 10° NNW visible
24 Aug 3.4 20:24:34 10° SE 20:29:22 45° ENE 20:34:12 10° N visible
24 Aug 5.3 22:05:00 10° SW 22:08:34 19° W 22:12:11 10° NW visible
25 Aug 4.0 21:26:49 10° S 21:31:38 44° W 21:36:29 10° NNW visible
26 Aug 2.9 20:49:50 10° SSE 20:54:53 81° ENE 21:00:00 10° N visible
26 Aug 5.9 22:34:11 10° W 22:34:28 10° W 22:34:46 10° W visible
27 Aug 3.7 20:13:46 10° SE 20:18:21 36° ENE 20:22:57 10° N visible
27 Aug 5.0 21:53:18 10° SSW 21:57:24 24° W 22:01:31 10° NW visible
28 Aug 3.6 21:15:33 10° S 21:20:31 56° W 21:25:32 10° NNW visible
